TimeMDT,TemperatureF,Dew PointF,Humidity,Sea Level PressureIn,VisibilityMPH,Wind Direction,Wind SpeedMPH,Gust SpeedMPH,PrecipitationIn,Events,Conditions,WindDirDegrees,DateUTC
12:53 AM,68.0,36.0,31,29.83,10.0,SSE,11.5,-,N/A,,Partly Cloudy,150,2012-09-06 06:53:00
1:53 AM,71.1,35.1,27,29.81,10.0,SSE,10.4,-,N/A,,Partly Cloudy,150,2012-09-06 07:53:00
2:53 AM,68.0,41.0,37,29.81,10.0,SSE,8.1,-,N/A,,Mostly Cloudy,150,2012-09-06 08:53:00
3:53 AM,71.1,37.9,30,29.81,10.0,SSE,10.4,-,N/A,,Mostly Cloudy,160,2012-09-06 09:53:00
4:53 AM,68.0,37.0,32,29.81,10.0,ESE,6.9,-,N/A,,Mostly Cloudy,110,2012-09-06 10:53:00
5:53 AM,64.0,42.1,45,29.83,10.0,Calm,Calm,-,N/A,,Scattered Clouds,0,2012-09-06 11:53:00
6:53 AM,64.9,39.9,40,29.84,10.0,ESE,4.6,-,N/A,,Scattered Clouds,110,2012-09-06 12:53:00
7:53 AM,69.1,43.0,39,29.86,10.0,SSE,4.6,-,N/A,,Scattered Clouds,150,2012-09-06 13:53:00
8:53 AM,75.0,39.0,27,29.85,10.0,SE,9.2,-,N/A,,Mostly Cloudy,140,2012-09-06 14:53:00
9:53 AM,79.0,43.0,28,29.85,10.0,SSE,10.4,-,N/A,,Scattered Clouds,160,2012-09-06 15:53:00
10:53 AM,82.9,39.0,21,29.85,10.0,SE,10.4,-,N/A,,Scattered Clouds,130,2012-09-06 16:53:00
11:53 AM,87.1,39.0,18,29.83,10.0,SSW,12.7,-,N/A,,Mostly Cloudy,200,2012-09-06 17:53:00
12:53 PM,86.0,39.0,19,29.83,10.0,Calm,Calm,-,N/A,,Mostly Cloudy,0,2012-09-06 18:53:00
1:53 PM,87.1,39.0,18,29.82,10.0,West,5.8,-,N/A,,Mostly Cloudy,260,2012-09-06 19:53:00
2:53 PM,86.0,37.0,18,29.83,10.0,NNW,18.4,-,N/A,,Mostly Cloudy,340,2012-09-06 20:53:00
3:53 PM,84.0,33.1,16,29.83,10.0,North,16.1,-,N/A,,Mostly Cloudy,360,2012-09-06 21:53:00
4:53 PM,84.0,34.0,17,29.82,10.0,North,13.8,-,N/A,,Mostly Cloudy,350,2012-09-06 22:53:00
5:53 PM,81.0,39.9,23,29.88,10.0,West,10.4,-,N/A,,Mostly Cloudy,280,2012-09-06 23:53:00
6:53 PM,80.1,42.1,26,29.86,10.0,SSW,10.4,-,N/A,,Mostly Cloudy,210,2012-09-07 00:53:00
7:53 PM,77.0,41.0,28,29.88,10.0,WNW,12.7,-,N/A,,Mostly Cloudy,290,2012-09-07 01:53:00
8:53 PM,72.0,45.0,38,29.91,10.0,West,5.8,-,N/A,,Scattered Clouds,280,2012-09-07 02:53:00
9:53 PM,70.0,54.0,57,29.94,10.0,South,9.2,-,N/A,,Scattered Clouds,170,2012-09-07 03:53:00
10:01 PM,69.8,53.6,56,30.10,10.0,NNW,32.2,40.3,N/A,,Squalls,330,2012-09-07 04:01:00
10:14 PM,69.8,53.6,56,30.09,10.0,SSE,9.2,-,N/A,,Scattered Clouds,160,2012-09-07 04:14:00
10:53 PM,68.0,55.0,63,29.94,10.0,SE,9.2,-,N/A,,Partly Cloudy,130,2012-09-07 04:53:00
11:53 PM,66.9,53.1,61,29.97,10.0,SSE,10.4,-,N/A,,Partly Cloudy,150,2012-09-07 05:53:00